GW4285 Weather Reports


Display with metric or nautical units.
time (UTC)temp
F
wind
direction
speed
MPH
gust
MPH
rain 1hr
in
rain 24hr
in
rain mn
in
humidity
%
barometer
mb
20260502201816 59 240 0.0 4.0 0.00 0.00 0.00 85 1013.4
20260502201312 58 255 3.0 5.0 0.00 0.00 0.00 86 1013.4
20260502200808 59 265 2.0 7.0 0.00 0.00 0.00 85 1013.4
20260502200304 59 265 1.0 4.0 0.00 0.00 0.00 83 1013.5
20260502195803 58 235 5.0 7.0 0.00 0.00 0.00 85 1013.5
20260502195259 60 264 5.0 5.0 0.00 0.00 0.00 82 1013.6
20260502194755 60 277 1.0 4.0 0.00 0.00 0.00 82 1013.5
20260502194253 59 271 1.0 4.0 0.00 0.00 0.00 84 1013.5
20260502193748 59 333 0.0 3.0 0.00 0.00 0.00 83 1013.5
20260502193246 59 271 3.0 3.0 0.00 0.00 0.00 82 1013.5
20260502192746 58 266 1.0 5.0 0.00 0.00 0.00 83 1013.6
20260502192238 59 247 4.0 5.0 0.00 0.00 0.00 81 1013.6
20260502191735 60 254 1.0 5.0 0.00 0.00 0.00 81 1013.7
20260502191233 59 265 0.0 3.0 0.00 0.00 0.00 82 1013.6
20260502190730 58 259 3.0 8.0 0.00 0.00 0.00 84 1013.7
20260502190227 58 129 3.0 4.0 0.00 0.00 0.00 84 1013.6
20260502185727 59 257 4.0 4.0 0.00 0.00 0.00 83 1013.6
20260502185224 59 243 0.0 0.0 0.00 0.00 0.00 83 1013.5
20260502184720 59 178 1.0 4.0 0.00 0.00 0.00 83 1013.6
20260502184216 58 267 0.0 1.0 0.00 0.00 0.00 84 1013.5
20260502183713 57 245 3.0 4.0 0.00 0.00 0.00 85 1013.6
20260502183208 57 256 5.0 7.0 0.00 0.00 0.00 86 1013.6
20260502182704 58 255 3.0 7.0 0.00 0.00 0.00 84 1013.6
20260502182200 58 262 0.0 1.0 0.00 0.00 0.00 86 1013.6
20260502181657 56 250 0.0 3.0 0.00 0.00 0.00 88 1013.6
20260502181156 56 254 0.0 4.0 0.00 0.00 0.00 88 1013.5
20260502180653 56 261 0.0 1.0 0.00 0.00 0.00 89 1013.7
20260502180150 55 255 0.0 1.0 0.00 0.00 0.00 89 1013.6
20260502170114 53 253 0.0 0.0 0.00 0.00 0.00 95 1013.4
20260502164100 53 252 0.0 0.0 0.00 0.00 0.00 95 1013.4
20260502163556 53 252 0.0 1.0 0.00 0.00 0.00 94 1013.4
20260502163053 53 259 0.0 0.0 0.00 0.00 0.00 94 1013.5
20260502162550 53 249 1.0 1.0 0.00 0.00 0.00 94 1013.5
20260502162047 53 240 0.0 3.0 0.00 0.00 0.00 95 1013.3
20260502161544 53 266 2.0 3.0 0.00 0.00 0.00 94 1013.3
20260502161041 53 139 1.0 3.0 0.00 0.00 0.00 95 1013.2
20260502160539 52 247 1.0 3.0 0.00 0.00 0.00 95 1013.2
20260502151947 52 252 0.0 0.0 0.00 0.00 0.00 96 1012.9
20260502151444 52 257 0.0 0.0 0.00 0.00 0.00 96 1012.7
20260502150941 52 248 0.0 0.0 0.00 0.00 0.00 96 1013.0
20260502150438 52 262 0.0 0.0 0.00 0.00 0.00 96 1012.9
20260502130323 51 309 0.0 0.0 0.00 0.00 0.00 97 1012.1
20260502123809 51 227 0.0 0.0 0.00 0.00 0.00 97 1012.1
20260502123306 51 258 0.0 0.0 0.00 0.00 0.00 97 1012.3
20260502122803 50 258 0.0 1.0 0.00 0.00 0.00 97 1012.2
20260502122259 51 205 0.0 0.0 0.00 0.00 0.00 97 1012.2
20260502121757 50 205 0.0 0.0 0.00 0.00 0.00 97 1012.0
20260502121254 50 205 0.0 0.0 0.00 0.00 0.00 97 1012.0
20260502120751 50 209 0.0 0.0 0.00 0.00 0.00 97 1012.0
20260502120248 50 209 0.0 0.0 0.00 0.00 0.00 97 1012.1
20260502115746 50 292 0.0 0.0 0.00 0.00 0.00 97 1012.2
20260502115242 50 124 0.0 0.0 0.00 0.00 0.00 97 1012.2
20260502114738 50 134 0.0 0.0 0.00 0.00 0.00 98 1012.2
20260502114235 50 134 0.0 0.0 0.00 0.00 0.00 97 1012.2
20260502113732 50 134 0.0 0.0 0.00 0.00 0.00 98 1012.0
20260502113230 50 134 0.0 0.0 0.00 0.00 0.00 98 1012.1
20260502112728 50 134 0.0 0.0 0.00 0.00 0.00 98 1012.2
20260502112226 50 134 0.0 0.0 0.00 0.00 0.00 98 1012.0
20260502111722 50 134 0.0 1.0 0.00 0.00 0.00 98 1012.0
20260502111220 50 134 0.0 0.0 0.00 0.00 0.00 98 1012.0
20260502110717 50 134 0.0 3.0 0.00 0.00 0.00 98 1012.0
20260502110215 50 213 1.0 1.0 0.00 0.00 0.00 98 1012.2
20260502105713 50 213 0.0 0.0 0.00 0.00 0.00 98 1012.3
20260502105209 51 240 0.0 1.0 0.00 0.00 0.00 98 1012.2
20260502104707 51 182 0.0 3.0 0.00 0.00 0.00 98 1012.1
20260502104204 51 254 0.0 0.0 0.00 0.00 0.00 98 1012.3
20260502103701 50 235 0.0 0.0 0.00 0.00 0.00 98 1012.1
20260502103159 50 10 0.0 3.0 0.00 0.00 0.00 98 1012.2
20260502102655 50 216 0.0 0.0 0.00 0.00 0.00 98 1012.2
20260502102152 50 216 0.0 1.0 0.00 0.00 0.00 98 1012.3
20260502101650 50 324 0.0 3.0 0.00 0.00 0.00 98 1012.3
20260502101148 50 163 0.0 1.0 0.00 0.00 0.00 98 1012.3
20260502100646 50 162 0.0 0.0 0.00 0.00 0.00 98 1012.2
20260502100144 50 134 0.0 3.0 0.00 0.00 0.00 98 1012.3
20260502091118 50 251 0.0 0.0 0.00 0.00 0.00 98 1012.7
20260502090615 50 211 1.0 1.0 0.00 0.00 0.00 98 1012.8
20260502090113 50 34 1.0 1.0 0.00 0.00 0.00 98 1012.8
20260502071510 51 249 0.0 1.0 0.00 0.00 0.00 99 1013.3
20260502071008 50 257 0.0 1.0 0.00 0.00 0.00 99 1013.1
20260502070506 50 226 0.0 3.0 0.00 0.00 0.00 99 1013.2
20260502070004 50 245 0.0 1.0 0.00 0.00 0.00 99 1013.0
20260502065502 51 211 2.0 3.0 0.00 0.00 0.00 99 1013.1
20260502065000 51 233 1.0 3.0 0.00 0.00 0.00 99 1013.2
20260502064458 51 260 0.0 0.0 0.00 0.00 0.00 99 1013.2
20260502063954 51 241 0.0 0.0 0.00 0.00 0.00 99 1013.1
20260502063452 51 236 0.0 0.0 0.00 0.00 0.00 99 1013.1
20260502062950 51 249 0.0 1.0 0.00 0.00 0.00 98 1013.1
20260502062446 51 257 1.0 5.0 0.00 0.00 0.00 98 1013.1
20260502061945 51 255 1.0 1.0 0.00 0.00 0.00 98 1013.1
20260502061443 51 258 0.0 0.0 0.00 0.00 0.00 98 1013.2
20260502060938 51 251 0.0 1.0 0.00 0.00 0.00 98 1013.3
20260502060434 51 228 0.0 3.0 0.00 0.00 0.00 98 1013.2
20260502055931 52 215 1.0 4.0 0.00 0.00 0.00 98 1013.3
20260502055429 51 247 0.0 0.0 0.00 0.00 0.00 98 1013.3
20260502054928 51 263 1.0 1.0 0.00 0.00 0.00 98 1013.3
20260502054426 51 250 0.0 3.0 0.00 0.00 0.00 98 1013.4
20260502053923 51 270 0.0 0.0 0.00 0.00 0.00 98 1013.4
20260502053420 51 241 0.0 5.0 0.00 0.00 0.00 97 1013.4
20260502052918 52 247 0.0 0.0 0.00 0.00 0.00 98 1013.4
20260502052416 51 255 0.0 0.0 0.00 0.00 0.00 98 1013.4
20260502051913 51 255 1.0 1.0 0.00 0.00 0.00 98 1013.5
20260502051412 51 244 0.0 3.0 0.00 0.00 0.00 98 1013.5
20260502050908 51 262 2.0 3.0 0.00 0.00 0.00 98 1013.6
20260502050404 51 253 2.0 3.0 0.00 0.00 0.00 98 1013.4
20260502045902 51 246 0.0 0.0 0.00 0.00 0.00 98 1013.4
20260502045358 51 252 0.0 0.0 0.00 0.00 0.00 98 1013.4
20260502044855 51 261 0.0 4.0 0.00 0.00 0.00 97 1013.6
20260502044351 52 240 1.0 4.0 0.00 0.00 0.00 97 1013.5
20260502043848 52 261 0.0 1.0 0.00 0.00 0.00 97 1013.5
20260502043346 52 268 1.0 1.0 0.00 0.00 0.00 97 1013.5
20260502042840 52 255 0.0 0.0 0.00 0.00 0.00 97 1013.5
20260502042338 52 245 3.0 3.0 0.00 0.00 0.00 97 1013.4
20260502041835 52 251 2.0 3.0 0.00 0.00 0.00 96 1013.4
20260502041332 52 247 2.0 4.0 0.00 0.00 0.00 96 1013.3
20260502040830 52 265 0.0 3.0 0.00 0.00 0.00 96 1013.3
20260502040326 52 260 3.0 3.0 0.00 0.00 0.00 96 1013.3
20260502035822 53 263 0.0 0.0 0.00 0.00 0.00 95 1013.0
20260502035319 53 253 0.0 0.0 0.00 0.00 0.00 95 1013.1
20260502034817 53 253 0.0 0.0 0.00 0.00 0.00 95 1013.1
20260502034315 53 258 0.0 0.0 0.00 0.00 0.00 95 1013.0
20260502033813 53 245 0.0 0.0 0.00 0.00 0.00 95 1013.0
20260502033310 53 259 0.0 0.0 0.00 0.00 0.00 95 1012.8
20260502032806 53 260 0.0 0.0 0.00 0.00 0.00 95 1012.7
20260502032305 53 254 0.0 0.0 0.00 0.00 0.00 95 1012.7
20260502031800 53 253 0.0 0.0 0.00 0.00 0.00 94 1012.7
20260502031258 53 253 0.0 0.0 0.00 0.00 0.00 94 1012.7
20260502030756 53 253 0.0 0.0 0.00 0.00 0.00 94 1012.6
20260502030254 53 253 0.0 0.0 0.00 0.00 0.00 93 1012.7
20260502025752 54 253 0.0 0.0 0.00 0.00 0.00 93 1012.6
20260502025250 54 261 0.0 3.0 0.00 0.00 0.00 93 1012.7
20260502024747 54 258 3.0 4.0 0.00 0.00 0.00 92 1012.6
20260502024245 55 263 1.0 1.0 0.00 0.00 0.00 90 1012.8
20260502023743 55 287 0.0 1.0 0.00 0.00 0.00 89 1012.7
20260502023240 56 262 2.0 3.0 0.00 0.00 0.00 87 1012.8
20260502022737 57 251 1.0 3.0 0.00 0.00 0.00 87 1012.7
20260502022233 58 252 0.0 1.0 0.00 0.00 0.00 85 1012.8
20260502021730 58 265 0.0 0.0 0.00 0.00 0.00 84 1012.7
20260502021227 59 252 2.0 3.0 0.00 0.00 0.00 83 1012.7
20260502020724 59 259 0.0 1.0 0.00 0.00 0.00 83 1012.7
20260502020222 59 247 0.0 1.0 0.00 0.00 0.00 82 1012.7
20260502015720 59 231 0.0 3.0 0.00 0.00 0.00 83 1012.6
20260502015215 60 244 1.0 3.0 0.00 0.00 0.00 82 1012.7
20260502014713 60 227 1.0 4.0 0.00 0.00 0.00 82 1012.8
20260502014210 59 259 3.0 4.0 0.00 0.00 0.00 82 1012.7
20260502013706 60 226 1.0 4.0 0.00 0.00 0.00 82 1012.7
20260502013201 60 244 0.0 1.0 0.00 0.00 0.00 81 1012.8
20260502012659 61 224 1.0 5.0 0.00 0.00 0.00 80 1012.8
20260502012157 61 248 0.0 4.0 0.00 0.00 0.00 80 1012.8
20260502011653 62 156 1.0 3.0 0.00 0.00 0.00 78 1012.7
20260502011149 64 290 3.0 5.0 0.00 0.00 0.00 76 1012.7
20260502010647 64 257 0.0 4.0 0.00 0.00 0.00 75 1012.6
20260502010143 65 275 4.0 7.0 0.00 0.00 0.00 71 1012.8
20260502005641 66 250 4.0 5.0 0.00 0.00 0.00 68 1012.8
20260502005138 66 253 1.0 4.0 0.00 0.00 0.00 71 1012.9
20260502004634 66 245 1.0 3.0 0.00 0.00 0.00 71 1012.9
20260502004131 66 259 3.0 4.0 0.00 0.00 0.00 70 1012.9
20260502003629 66 280 1.0 4.0 0.00 0.00 0.00 70 1012.9
20260502003125 66 249 4.0 7.0 0.00 0.00 0.00 70 1013.0
20260502002621 67 251 2.0 5.0 0.00 0.00 0.00 69 1012.9
20260502002120 66 254 2.0 4.0 0.00 0.00 0.00 73 1012.9
20260502001617 66 245 6.0 7.0 0.00 0.00 0.00 72 1012.9
20260502001114 66 256 3.0 5.0 0.00 0.00 0.00 73 1012.8
20260502000612 65 240 1.0 5.0 0.00 0.00 0.00 74 1012.9
20260502000109 66 242 7.0 8.0 0.00 0.00 0.00 74 1012.9
20260501235605 66 274 5.0 10.0 0.00 0.00 0.00 74 1012.9
20260501235101 66 245 3.0 7.0 0.00 0.00 0.00 73 1012.9
20260501234556 66 251 5.0 7.0 0.00 0.00 0.00 72 1012.8
20260501234054 66 256 4.0 7.0 0.00 0.00 0.00 72 1012.9
20260501233553 68 259 2.0 4.0 0.00 0.00 0.00 71 1012.8
20260501233049 67 286 3.0 7.0 0.00 0.00 0.00 71 1013.0
20260501232545 66 255 4.0 8.0 0.00 0.00 0.00 73 1013.0
20260501232043 66 255 7.0 11.0 0.00 0.00 0.00 75 1013.0
20260501231540 68 252 6.0 8.0 0.00 0.00 0.00 70 1013.1
20260501231039 64 262 3.0 8.0 0.00 0.00 0.00 76 1013.1
20260501230537 64 255 4.0 7.0 0.00 0.00 0.00 77 1013.0
20260501230035 65 262 3.0 8.0 0.00 0.00 0.00 76 1013.2
20260501225532 65 255 5.0 7.0 0.00 0.00 0.00 75 1013.2
20260501225028 67 245 8.0 10.0 0.00 0.00 0.00 76 1013.3
20260501224526 67 263 4.0 8.0 0.00 0.00 0.00 73 1013.3
20260501224023 68 225 7.0 10.0 0.00 0.00 0.00 74 1013.3
20260501223519 69 250 6.0 8.0 0.00 0.00 0.00 73 1013.4
20260501223015 68 248 4.0 5.0 0.00 0.00 0.00 74 1013.5
20260501222512 70 229 6.0 7.0 0.00 0.00 0.00 71 1013.6
20260501222009 69 248 3.0 10.0 0.00 0.00 0.00 75 1013.5
20260501221505 70 265 3.0 4.0 0.00 0.00 0.00 72 1013.6
20260501221003 70 263 7.0 10.0 0.00 0.00 0.00 72 1013.7
20260501220500 72 280 3.0 4.0 0.00 0.00 0.00 67 1013.8
20260501215956 71 244 3.0 8.0 0.00 0.00 0.00 70 1013.8
20260501215453 73 277 5.0 7.0 0.00 0.00 0.00 66 1013.8
20260501214948 71 271 3.0 5.0 0.00 0.00 0.00 68 1013.8
20260501214444 72 247 2.0 7.0 0.00 0.00 0.00 69 1013.9
20260501213939 75 258 0.0 4.0 0.00 0.00 0.00 63 1013.9
20260501213437 72 242 1.0 3.0 0.00 0.00 0.00 68 1014.0
20260501212932 72 278 1.0 5.0 0.00 0.00 0.00 65 1013.9
20260501212430 72 247 5.0 7.0 0.00 0.00 0.00 62 1014.0
20260501211926 71 266 2.0 4.0 0.00 0.00 0.00 64 1014.0
20260501211424 71 277 5.0 7.0 0.00 0.00 0.00 65 1014.0
20260501210921 71 272 3.0 3.0 0.00 0.00 0.00 63 1014.0
20260501210418 70 248 1.0 5.0 0.00 0.00 0.00 67 1014.0
20260501205914 72 254 2.0 5.0 0.00 0.00 0.00 64 1014.0
20260501205411 70 254 0.0 3.0 0.00 0.00 0.00 66 1014.1
20260501204908 72 249 5.0 7.0 0.00 0.00 0.00 62 1014.3
20260501204404 71 342 0.0 3.0 0.00 0.00 0.00 63 1014.2
20260501203900 71 246 2.0 3.0 0.00 0.00 0.00 65 1014.2
20260501203358 71 260 1.0 3.0 0.00 0.00 0.00 65 1014.3
20260501202855 71 298 1.0 1.0 0.00 0.00 0.00 64 1014.4
20260501202352 71 225 0.0 1.0 0.00 0.00 0.00 65 1014.4